When you browse on this site, cookies collect data to enhance your experience and personalize the content and advertising you see.
Visit our Privacy Policy to learn more. By continuing to use the site, you agree to this use of cookies and data.

Hourly Weather Benguela

Today, 23 September, Wednesday

Time Temperature Precipitation Wind Pressure Humidity
00:00 +25°C° 0 mm 2 mps 761 mmHg 76%
01:00 +25°C° 0 mm 2 mps 760 mmHg 75%
02:00 +25°C° 0 mm 2 mps 760 mmHg 78%
03:00 +24°C° 0 mm 2 mps 760 mmHg 80%
04:00 +24°C° 0 mm 2 mps 759 mmHg 83%
05:00 +24°C° 0 mm 2 mps 760 mmHg 82%
06:00 +24°C° 0 mm 1 mps 760 mmHg 82%
07:00 +24°C° 0 mm 1 mps 761 mmHg 81%
08:00 +27°C° 0 mm 2 mps 760 mmHg 72%
09:00 +29°C° 0 mm 2 mps 760 mmHg 62%
10:00 +31°C° 0 mm 3 mps 760 mmHg 53%
11:00 +32°C° 0 mm 4 mps 759 mmHg 52%
12:00 +33°C° 0 mm 4 mps 758 mmHg 51%
13:00 +33°C° 0 mm 4 mps 758 mmHg 49%
14:00 +32°C° 0 mm 4 mps 757 mmHg 53%
15:00 +30°C° 0 mm 4 mps 757 mmHg 57%
16:00 +29°C° 0 mm 5 mps 757 mmHg 60%
17:00 +27°C° 0 mm 4 mps 757 mmHg 67%
18:00 +26°C° 0 mm 3 mps 758 mmHg 74%
19:00 +24°C° 0 mm 2 mps 759 mmHg 81%
20:00 +25°C° 0 mm 2 mps 760 mmHg 79%
21:00 +25°C° 0 mm 1 mps 761 mmHg 77%
22:00 +25°C° 0 mm 1 mps 761 mmHg 75%
23:00 +25°C° 0 mm 1 mps 761 mmHg 76%

Tomorrow, 24 September, Thursday

Time Temperature Precipitation Wind Pressure Humidity
00:00 +24°C° 0 mm 1 mps 760 mmHg 78%
01:00 +24°C° 0 mm 1 mps 760 mmHg 79%
02:00 +24°C° 0 mm 2 mps 760 mmHg 79%
03:00 +24°C° 0 mm 2 mps 759 mmHg 80%
04:00 +24°C° 0 mm 2 mps 759 mmHg 80%
05:00 +24°C° 0 mm 2 mps 760 mmHg 79%
06:00 +24°C° 0 mm 1 mps 760 mmHg 78%
07:00 +24°C° 0 mm 1 mps 761 mmHg 77%
08:00 +26°C° 0 mm 2 mps 760 mmHg 71%
09:00 +27°C° 0 mm 2 mps 760 mmHg 65%
10:00 +29°C° 0 mm 3 mps 760 mmHg 59%
11:00 +29°C° 0 mm 3 mps 759 mmHg 57%
12:00 +30°C° 0 mm 4 mps 758 mmHg 55%
13:00 +30°C° 0 mm 4 mps 757 mmHg 52%
14:00 +30°C° 0 mm 4 mps 757 mmHg 56%
15:00 +29°C° 0 mm 4 mps 757 mmHg 60%
16:00 +28°C° 0 mm 4 mps 756 mmHg 63%
17:00 +27°C° 0 mm 3 mps 757 mmHg 68%
18:00 +26°C° 0 mm 3 mps 758 mmHg 73%
19:00 +25°C° 0 mm 2 mps 759 mmHg 78%
20:00 +25°C° 0 mm 2 mps 760 mmHg 77%
21:00 +25°C° 0 mm 1 mps 760 mmHg 75%
22:00 +25°C° 0 mm 1 mps 761 mmHg 74%
23:00 +25°C° 0 mm 1 mps 761 mmHg 76%

Day after tomorrow, 25 September, Friday

Time Temperature Precipitation Wind Pressure Humidity
00:00 +24°C° 0 mm 1 mps 760 mmHg 77%
01:00 +24°C° 0 mm 1 mps 760 mmHg 79%
02:00 +24°C° 0 mm 1 mps 760 mmHg 80%
03:00 +23°C° 0 mm 1 mps 760 mmHg 82%
04:00 +23°C° 0 mm 1 mps 759 mmHg 83%
05:00 +23°C° 0 mm 1 mps 760 mmHg 82%
06:00 +21°C° 0 mm 0 mps 760 mmHg 81%
07:00 +22°C° 0 mm 0 mps 761 mmHg 81%
08:00 +25°C° 0 mm 1 mps 760 mmHg 72%
09:00 +27°C° 0 mm 2 mps 760 mmHg 64%
10:00 +29°C° 0 mm 2 mps 760 mmHg 56%
11:00 +29°C° 0 mm 3 mps 759 mmHg 54%
12:00 +30°C° 0 mm 4 mps 758 mmHg 53%
13:00 +30°C° 0 mm 4 mps 757 mmHg 52%
14:00 +29°C° 0 mm 4 mps 757 mmHg 55%
15:00 +29°C° 0 mm 4 mps 757 mmHg 57%
16:00 +28°C° 0 mm 4 mps 756 mmHg 60%
17:00 +27°C° 0 mm 4 mps 757 mmHg 66%
18:00 +26°C° 0 mm 3 mps 758 mmHg 72%
19:00 +24°C° 0 mm 3 mps 759 mmHg 78%
20:00 +24°C° 0 mm 2 mps 759 mmHg 77%
21:00 +24°C° 0 mm 2 mps 760 mmHg 76%
22:00 +24°C° 0 mm 2 mps 760 mmHg 75%
23:00 +24°C° 0 mm 2 mps 760 mmHg 77%

26 September, Saturday

Time Temperature Precipitation Wind Pressure Humidity
00:00 +24°C° 0 mm 2 mps 760 mmHg 78%
01:00 +24°C° 0 mm 2 mps 760 mmHg 80%
02:00 +24°C° 0 mm 1 mps 759 mmHg 79%
03:00 +24°C° 0 mm 1 mps 759 mmHg 79%
04:00 +24°C° 0 mm 1 mps 759 mmHg 79%
05:00 +24°C° 0 mm 1 mps 759 mmHg 78%
06:00 +22°C° 0 mm 0 mps 759 mmHg 78%
07:00 +22°C° 0 mm 0 mps 760 mmHg 77%
08:00 +25°C° 0 mm 1 mps 759 mmHg 69%
09:00 +27°C° 0 mm 2 mps 759 mmHg 61%
10:00 +29°C° 0 mm 3 mps 759 mmHg 54%
11:00 +29°C° 0 mm 3 mps 758 mmHg 53%
12:00 +29°C° 0 mm 4 mps 758 mmHg 52%
13:00 +30°C° 0 mm 5 mps 757 mmHg 51%
14:00 +29°C° 0 mm 5 mps 756 mmHg 53%
15:00 +28°C° 0 mm 5 mps 756 mmHg 56%
16:00 +28°C° 0 mm 5 mps 756 mmHg 58%
17:00 +27°C° 0 mm 4 mps 757 mmHg 64%
18:00 +25°C° 0 mm 3 mps 758 mmHg 69%
19:00 +24°C° 0 mm 2 mps 758 mmHg 75%
20:00 +24°C° 0 mm 2 mps 759 mmHg 76%
21:00 +24°C° 0 mm 2 mps 759 mmHg 77%
22:00 +24°C° 0 mm 1 mps 760 mmHg 78%
23:00 +23°C° 0 mm 1 mps 760 mmHg 79%

27 September, Sunday

Time Temperature Precipitation Wind Pressure Humidity
00:00 +23°C° 0 mm 1 mps 760 mmHg 80%
01:00 +23°C° 0 mm 1 mps 759 mmHg 81%
02:00 +23°C° 0 mm 1 mps 759 mmHg 82%
03:00 +21°C° 0 mm 0 mps 759 mmHg 82%
04:00 +20°C° 0 mm 0 mps 759 mmHg 83%
05:00 +21°C° 0 mm 0 mps 759 mmHg 81%
06:00 +21°C° 0 mm 0 mps 759 mmHg 79%
07:00 +23°C° 0 mm 1 mps 759 mmHg 77%
08:00 +25°C° 0 mm 1 mps 759 mmHg 69%
09:00 +27°C° 0 mm 2 mps 759 mmHg 61%
10:00 +29°C° 0 mm 3 mps 759 mmHg 52%
11:00 +29°C° 0 mm 3 mps 758 mmHg 51%
12:00 +29°C° 0 mm 4 mps 757 mmHg 51%
13:00 +30°C° 0 mm 5 mps 757 mmHg 50%
14:00 +29°C° 0 mm 5 mps 756 mmHg 52%
15:00 +28°C° 0 mm 4 mps 756 mmHg 54%
16:00 +28°C° 0 mm 4 mps 756 mmHg 56%
17:00 +27°C° 0 mm 4 mps 757 mmHg 61%
18:00 +25°C° 0 mm 3 mps 757 mmHg 66%
19:00 +24°C° 0 mm 2 mps 758 mmHg 71%
20:00 +24°C° 0 mm 2 mps 759 mmHg 72%
21:00 +24°C° 0 mm 1 mps 759 mmHg 73%
22:00 +24°C° 0 mm 1 mps 760 mmHg 74%
23:00 +23°C° 0 mm 1 mps 760 mmHg 76%

28 September, Monday

Time Temperature Precipitation Wind Pressure Humidity
00:00 +23°C° 0 mm 1 mps 759 mmHg 78%
01:00 +23°C° 0 mm 1 mps 759 mmHg 81%
02:00 +20°C° 0 mm 0 mps 759 mmHg 82%
03:00 +20°C° 0 mm 0 mps 759 mmHg 83%
04:00 +20°C° 0 mm 0 mps 758 mmHg 84%
05:00 +20°C° 0 mm 0 mps 759 mmHg 81%
06:00 +21°C° 0 mm 0 mps 759 mmHg 78%
07:00 +23°C° 0 mm 1 mps 759 mmHg 76%
08:00 +25°C° 0 mm 1 mps 759 mmHg 67%
09:00 +27°C° 0 mm 2 mps 759 mmHg 59%
10:00 +29°C° 0 mm 3 mps 759 mmHg 50%
11:00 +29°C° 0 mm 3 mps 758 mmHg 51%
12:00 +29°C° 0 mm 4 mps 757 mmHg 51%
13:00 +30°C° 0 mm 4 mps 756 mmHg 52%
14:00 +29°C° 0 mm 4 mps 756 mmHg 54%
15:00 +28°C° 0 mm 4 mps 756 mmHg 56%
16:00 +28°C° 0 mm 4 mps 756 mmHg 59%
17:00 +27°C° 0 mm 3 mps 757 mmHg 64%
18:00 +25°C° 0 mm 2 mps 757 mmHg 70%
19:00 +24°C° 0 mm 1 mps 758 mmHg 75%
20:00 +24°C° 0 mm 1 mps 759 mmHg 76%
21:00 +24°C° 0 mm 1 mps 759 mmHg 77%
22:00 +24°C° 0 mm 1 mps 760 mmHg 77%
23:00 +23°C° 0 mm 1 mps 759 mmHg 78%
Show more